Change the Weather History Date:

Friday, March 21, 2014

  Actual Average Record
Temperature  
Mean Temperature 59 °F -  
Max Temperature 77 °F - - ()
Min Temperature 41 °F - - ()
Degree Days  
Heating Degree Days 6    
Growing Degree Days 9 (Base 50)    
Moisture  
Dew Point 48 °F    
Average Humidity 77    
Maximum Humidity 100    
Minimum Humidity 26    
Precipitation  
Precipitation 0.00 in - - ()
Sea Level Pressure  
Sea Level Pressure 30.07 in    
Wind  
Wind Speed 4 mph (ESE)    
Max Wind Speed 13 mph    
Max Gust Speed -    
Visibility 8 miles    
Events      
T = Trace of Precipitation, MM = Missing Value Source: NWS Daily Summary

Daily Weather History Graph

Daily Weather History Graph

Search for Another Location

Airport or City:

Trip Planner

Search our weather history database for the weather conditions in past years. The results will help you decide how hot, cold, wet, or windy it might be!

Date:

Astronomy

Mar. 21, 2014 Rise Set
Actual Time 6:48 AM CDT 6:58 PM CDT
Civil Twilight 6:24 AM CDT 7:22 PM CDT
Nautical Twilight 5:56 AM CDT 7:50 PM CDT
Astronomical Twilight 5:28 AM CDT 8:18 PM CDT
Moon 11:58 PM CDT (3/21) 9:58 AM CDT (3/21)
Length of Visible Light 12h 57m
Length of Day
12h 09m
Waning Gibbous, 75% of the Moon is Illuminated
Mar 21
Waning Gibbous
Mar 23
Last Quarter
Mar 30
New
Apr 7
First Quarter
Apr 15
Full

Hourly Weather History & Observations

Time (CDT) Temp. Windchill Dew Point Humidity Pressure Visibility Wind Dir Wind Speed Gust Speed Precip Events Conditions
12:58 AM 48.6 °F - 48.4 °F 99% 30.08 in 7.0 mi North 2.3 mph - N/A   Clear
1:08 AM 48.2 °F - 48.2 °F 100% 30.07 in 2.5 mi North 1.2 mph - N/A   Clear
1:13 AM 48.2 °F - 48.2 °F 100% 30.07 in 2.0 mi NNW 2.3 mph - N/A   Clear
1:18 AM 48.2 °F - 48.2 °F 100% 30.07 in 5.0 mi North 2.3 mph - N/A   Clear
1:28 AM 48.2 °F - 48.2 °F 100% 30.07 in 1.5 mi NNW 2.3 mph - N/A   Clear
1:33 AM 48.2 °F - 48.2 °F 100% 30.07 in 1.2 mi NNW 2.3 mph - N/A   Clear
1:38 AM 48.2 °F - 48.2 °F 100% 30.07 in 2.5 mi Calm Calm - N/A   Clear
1:43 AM 48.2 °F - 48.2 °F 100% 30.07 in 3.0 mi NNW 2.3 mph - N/A   Clear
1:58 AM 46.9 °F - 46.8 °F 99% 30.08 in 5.0 mi North 2.3 mph - N/A   Clear
2:58 AM 45.1 °F 42.8 °F 45.0 °F 99% 30.08 in 10.0 mi NNW 4.6 mph - N/A   Clear
3:58 AM 45.0 °F - 44.8 °F 99% 30.08 in 10.0 mi Calm Calm - N/A   Clear
4:58 AM 45.3 °F 44.0 °F 41.0 °F 85% 30.08 in 10.0 mi NNE 3.5 mph - N/A   Clear
5:58 AM 42.8 °F - 41.9 °F 97% 30.10 in 10.0 mi Calm Calm - N/A   Clear
6:58 AM 41.9 °F - 40.6 °F 95% 30.11 in 10.0 mi Calm Calm - N/A   Clear
7:58 AM 47.5 °F - 41.4 °F 79% 30.13 in 10.0 mi NNE 2.3 mph - N/A   Clear
8:55 AM 59.0 °F - 35.6 °F 42% 30.14 in 10.0 mi East 5.8 mph - N/A   Partly Cloudy
9:55 AM 66.6 °F - 33.8 °F 30% 30.13 in 10.0 mi East 6.9 mph - N/A   Scattered Clouds
10:56 AM 71.6 °F - 34.5 °F 26% 30.14 in 10.0 mi Variable 3.5 mph - N/A   Mostly Cloudy
11:57 AM 73.4 °F - 36.3 °F 26% 30.13 in 10.0 mi NE 2.3 mph - N/A   Mostly Cloudy
12:56 PM 76.3 °F - 39.2 °F 26% 30.08 in 10.0 mi North 5.8 mph - N/A   Scattered Clouds
1:55 PM 77.9 °F - 41.4 °F 27% 30.07 in 10.0 mi SSW 6.9 mph - N/A   Scattered Clouds
2:59 PM 77.2 °F - 43.7 °F 30% 30.05 in 10.0 mi South 12.7 mph - N/A   Mostly Cloudy
3:55 PM 76.1 °F - 44.4 °F 32% 30.03 in 10.0 mi South 12.7 mph - N/A   Mostly Cloudy
4:55 PM 75.0 °F - 49.6 °F 41% 30.03 in 10.0 mi South 12.7 mph - N/A   Mostly Cloudy
5:55 PM 69.6 °F - 55.0 °F 60% 30.04 in 10.0 mi South 11.5 mph - N/A   Mostly Cloudy
6:55 PM 65.8 °F - 54.9 °F 68% 30.04 in 10.0 mi SSW 8.1 mph - N/A   Mostly Cloudy
7:55 PM 62.6 °F - 56.8 °F 81% 30.05 in 10.0 mi SSE 5.8 mph - N/A   Scattered Clouds
8:29 PM 62.6 °F - 60.8 °F 94% 30.05 in 10.0 mi South 6.9 mph - N/A   Scattered Clouds
8:38 PM 62.6 °F - 60.8 °F 94% 30.05 in 10.0 mi South 6.9 mph - N/A   Mostly Cloudy
8:55 PM 61.5 °F - 61.3 °F 99% 30.06 in 10.0 mi South 5.8 mph - N/A   Scattered Clouds
9:55 PM 60.1 °F - 60.1 °F 100% 30.05 in 10.0 mi SSE 2.3 mph - N/A   Partly Cloudy
10:55 PM 58.1 °F - 58.1 °F 100% 30.06 in 7.0 mi South 4.6 mph - N/A   Partly Cloudy
11:33 PM 59.0 °F - 59.0 °F 100% 30.05 in 6.0 mi South 5.8 mph - N/A   Mostly Cloudy
11:55 PM 61.0 °F - 61.0 °F 100% 30.05 in 7.0 mi South 6.9 mph - N/A   Overcast